Погода в Сегете-Доньях

Хорватия     43°31′08″N   16°13′44″E
темп.,
°C
ветер,
м/с
пор.,
м/с
влажн.,
%
обл.,
%
осадки,
мм/ч
давл.,
гПа
погр.,
м
14 мая, пт
пт1423:00+14вюв677592 0.5 1009497
02:00+15в6776100 0.5 1008486
05:00+14с116893 0.4 100847
08:00+14ссв017286 1.0 1010126
11:00+15ю22713 0.8 1011447
14:00+17юз23605 0.8 1012596
17:00+16ююв226199 0.0 1011329
20:00+16вюв6873100 0.1 1010328
15 мая, сб
сб1523:00+15в797667 0.9 1010417
02:00+15св5869100 1.2 1009308
05:00+15св466694 0.1 1008252
08:00+16всв696858 0.1 1009767
11:00+17юв677064 0.1 1010793
14:00+16вюв677994 0.9 1011664
17:00+16юв568184 1.4 1011610
20:00+16юв458296 2.1 1011451
16 мая, вс
вс1623:00+15юв458667 0.6 1012434
02:00+15юв3486100 1.8 1011308
05:00+15юв3381100 1.8 1010205
08:00+15вюв5686100 2.3 1011325
11:00+15вюв5688100 1.2 1012342
14:00+16вюв568172 1.6 1012528
17:00+17юв4678100 0.0 1011457
20:00+17вюв4683100 0.0 1011330
17 мая, пн
пн1723:00+17вюв5882100 0.0 1011406
02:00+17в6980100 0.0 1010368
05:00+17в5775100 0.0 1010300
08:00+17вюв6974100 0.0 1011423
11:00+18вюв687781 0.0 1011399
14:00+19вюв577864 0.0 1011325
17:00+19вюв467695 0.0 1010240
20:00+18вюв457960 0.0 1011105
18 мая, вт
вт1823:00+17всв467862 0.1 101199
02:00+17всв347697 0.1 101079
05:00+16с2380100 0.4 1009115
08:00+15ссз6127289 4.1 1010681
11:00+18зсз9116544 0.0 1010978
14:00+16з897462 0.1 10101117
17:00+17сз78651 0.3 1011679
20:00+15ссв35640 0.3 1015322